Weather History for Stevens Point, WI

Change the Weather History Date:

Wednesday, March 5, 2014

  Actual Average Record
Temperature  
Mean Temperature 7 °F -  
Max Temperature 15 °F 35 °F 48 °F (1968)
Min Temperature -2 °F 17 °F -12 °F (1952)
Degree Days  
Heating Degree Days 58    
Moisture  
Dew Point -2 °F    
Average Humidity 65    
Maximum Humidity 86    
Minimum Humidity 45    
Precipitation  
Precipitation 0.00 in - - ()
Sea Level Pressure  
Sea Level Pressure 30.42 in    
Wind  
Wind Speed 6 mph (East)    
Max Wind Speed 13 mph    
Max Gust Speed 16 mph    
Visibility 10 miles    
Events      
Averages and records for this station are not official NWS values.
T = Trace of Precipitation, MM = Missing Value Source: NWS Daily Summary

Daily Weather History Graph

Daily Weather History Graph

Search for Another Location

Airport:

Trip Planner

Search our weather history database for the weather conditions in past years. The results will help you decide how hot, cold, wet, or windy it might be!

Date:

Astronomy

Mar. 05, 2014 Rise Set
Actual Time 6:28 AM CST 5:51 PM CST
Civil Twilight 5:59 AM CST 6:20 PM CST
Nautical Twilight 5:25 AM CST 6:54 PM CST
Astronomical Twilight 4:51 AM CST 7:28 PM CST
Moon 8:42 AM CST (3/5) 11:12 PM CST (3/5)
Length of Visible Light 12h 21m
Length of Day
11h 22m
Waxing Crescent, 23% of the Moon is Illuminated
Mar 5
Waxing Crescent
Mar 8
First Quarter
Mar 16
Full
Mar 23
Last Quarter
Mar 30
New

Hourly Weather History & Observations

Time (CST) Temp. Windchill Dew Point Humidity Pressure Visibility Wind Dir Wind Speed Gust Speed Precip Events Conditions
12:15 AM 4.5 °F - 0.9 °F 85% 30.26 in 7.0 mi Calm Calm - N/A   Clear
12:35 AM 5.7 °F - 1.4 °F 82% 30.28 in 10.0 mi Calm Calm - N/A   Clear
12:55 AM 4.5 °F - 0.3 °F 83% 30.28 in 7.0 mi Calm Calm - N/A   Clear
1:15 AM 2.7 °F - -0.6 °F 86% 30.29 in 7.0 mi Calm Calm - N/A   Clear
1:35 AM 3.0 °F -4.4 °F -0.8 °F 84% 30.31 in 10.0 mi NNE 3.5 mph - N/A   Scattered Clouds
1:55 AM 5.2 °F -5.4 °F 1.4 °F 84% 30.31 in 10.0 mi ENE 5.8 mph - N/A   Scattered Clouds
2:15 AM 7.7 °F -3.7 °F 2.1 °F 78% 30.32 in 10.0 mi ENE 6.9 mph - N/A   Clear
2:35 AM 7.9 °F -3.5 °F 2.5 °F 79% 30.33 in 10.0 mi East 6.9 mph - N/A   Clear
2:55 AM 8.4 °F -4.9 °F 3.2 °F 79% 30.33 in 10.0 mi ENE 9.2 mph - N/A   Clear
3:15 AM 8.2 °F -3.0 °F 3.2 °F 80% 30.34 in 10.0 mi ENE 6.9 mph - N/A   Clear
3:35 AM 8.2 °F -4.1 °F 3.2 °F 80% 30.35 in 10.0 mi ENE 8.1 mph - N/A   Clear
3:55 AM 8.4 °F -3.9 °F 3.2 °F 79% 30.35 in 10.0 mi ENE 8.1 mph - N/A   Clear
4:15 AM 8.4 °F -1.6 °F 3.2 °F 79% 30.37 in 10.0 mi East 5.8 mph - N/A   Scattered Clouds
4:35 AM 8.4 °F -2.8 °F 3.2 °F 79% 30.38 in 10.0 mi ENE 6.9 mph - N/A   Mostly Cloudy
4:55 AM 8.2 °F -1.8 °F 3.2 °F 80% 30.39 in 10.0 mi ENE 5.8 mph - N/A   Overcast
5:01 AM 8.6 °F -1.3 °F 3.2 °F 79% 30.39 in 10.0 mi ENE 5.8 mph - N/A   Overcast
5:15 AM 8.1 °F -3.2 °F 3.2 °F 81% 30.40 in 10.0 mi ENE 6.9 mph - N/A   Overcast
5:35 AM 7.7 °F -4.8 °F 3.2 °F 82% 30.40 in 10.0 mi ENE 8.1 mph - N/A   Mostly Cloudy
5:55 AM 8.1 °F -4.3 °F 3.2 °F 81% 30.40 in 10.0 mi ENE 8.1 mph - N/A   Mostly Cloudy
6:02 AM 8.6 °F -4.7 °F 3.2 °F 79% 30.40 in 10.0 mi ENE 9.2 mph - N/A   Scattered Clouds
6:15 AM 7.9 °F -3.5 °F 2.3 °F 78% 30.41 in 10.0 mi ENE 6.9 mph - N/A   Scattered Clouds
6:22 AM 8.6 °F -5.5 °F 1.4 °F 73% 30.41 in 10.0 mi ENE 10.4 mph - N/A   Scattered Clouds
6:35 AM 7.5 °F -5.0 °F 1.8 °F 77% 30.41 in 10.0 mi ENE 8.1 mph - N/A   Clear
6:55 AM 7.2 °F -5.4 °F 0.9 °F 75% 30.42 in 10.0 mi ENE 8.1 mph - N/A   Clear
7:00 AM 6.8 °F -4.8 °F -0.4 °F 72% 30.42 in 10.0 mi ENE 6.9 mph - N/A   Clear
7:15 AM 6.1 °F -5.6 °F 0.1 °F 77% 30.42 in 10.0 mi ENE 6.9 mph - N/A   Clear
7:35 AM 6.8 °F -2.0 °F 0.3 °F 75% 30.43 in 10.0 mi ENE 4.6 mph - N/A   Clear
7:55 AM 7.3 °F -6.2 °F 0.5 °F 74% 30.44 in 10.0 mi ENE 9.2 mph - N/A   Clear
8:15 AM 8.1 °F -5.3 °F 0.7 °F 72% 30.44 in 10.0 mi ENE 9.2 mph - N/A   Clear
8:35 AM 8.6 °F -7.0 °F 0.7 °F 70% 30.45 in 10.0 mi East 12.7 mph - N/A   Clear
8:55 AM 9.1 °F -5.6 °F 0.5 °F 68% 30.46 in 10.0 mi ENE 11.5 mph - N/A   Clear
9:15 AM 9.5 °F -2.6 °F 0.9 °F 68% 30.47 in 10.0 mi East 8.1 mph - N/A   Clear
9:35 AM 10.4 °F -4.8 °F 0.3 °F 64% 30.47 in 10.0 mi East 12.7 mph - N/A   Clear
9:55 AM 10.9 °F -4.1 °F 0.1 °F 62% 30.47 in 10.0 mi East 12.7 mph 16.1 mph N/A   Clear
10:15 AM 11.1 °F -3.2 °F -0.6 °F 59% 30.47 in 10.0 mi ENE 11.5 mph - N/A   Clear
10:35 AM 11.7 °F -1.7 °F -0.4 °F 58% 30.48 in 10.0 mi East 10.4 mph - N/A   Clear
10:55 AM 12.2 °F -0.2 °F -0.9 °F 56% 30.48 in 10.0 mi East 9.2 mph - N/A   Clear
11:15 AM 12.6 °F -1.4 °F -0.8 °F 55% 30.48 in 10.0 mi East 11.5 mph - N/A   Clear
11:35 AM 12.9 °F -0.9 °F -1.1 °F 54% 30.48 in 10.0 mi East 11.5 mph - N/A   Clear
11:55 AM 13.1 °F 0.9 °F -1.3 °F 53% 30.48 in 10.0 mi East 9.2 mph - N/A   Clear
12:15 PM 13.3 °F 5.6 °F -1.5 °F 52% 30.48 in 10.0 mi ENE 4.6 mph - N/A   Clear
12:35 PM 14.0 °F 5.1 °F -0.9 °F 52% 30.48 in 10.0 mi ESE 5.8 mph - N/A   Clear
12:55 PM 14.0 °F 2.9 °F -1.3 °F 51% 30.46 in 10.0 mi East 8.1 mph - N/A   Clear
1:15 PM 14.4 °F 4.3 °F -1.5 °F 50% 30.46 in 10.0 mi SE 6.9 mph - N/A   Clear
1:35 PM 14.7 °F 3.8 °F -1.1 °F 50% 30.46 in 10.0 mi SE 8.1 mph - N/A   Clear
1:55 PM 14.9 °F 4.0 °F -1.3 °F 49% 30.45 in 10.0 mi East 8.1 mph - N/A   Clear
2:15 PM 15.1 °F 4.2 °F -0.9 °F 49% 30.45 in 10.0 mi East 8.1 mph - N/A   Clear
2:35 PM 14.9 °F 2.3 °F -0.9 °F 50% 30.45 in 10.0 mi ESE 10.4 mph - N/A   Clear
2:55 PM 14.9 °F 2.3 °F -1.3 °F 49% 30.45 in 10.0 mi ESE 10.4 mph - N/A   Clear
3:15 PM 14.9 °F 2.3 °F -1.5 °F 48% 30.45 in 10.0 mi East 10.4 mph - N/A   Clear
3:35 PM 14.9 °F 4.0 °F -1.7 °F 48% 30.45 in 10.0 mi SE 8.1 mph - N/A   Clear
3:55 PM 14.9 °F 3.1 °F -1.7 °F 48% 30.45 in 10.0 mi East 9.2 mph - N/A   Clear
4:15 PM 14.7 °F 2.9 °F -2.2 °F 47% 30.45 in 10.0 mi ESE 9.2 mph - N/A   Clear
4:35 PM 14.2 °F 5.3 °F -2.4 °F 48% 30.46 in 10.0 mi ESE 5.8 mph - N/A   Clear
4:55 PM 13.6 °F 2.5 °F -2.9 °F 48% 30.46 in 10.0 mi ESE 8.1 mph - N/A   Clear
5:15 PM 12.9 °F 0.7 °F -4.0 °F 47% 30.46 in 10.0 mi SE 9.2 mph - N/A   Clear
5:35 PM 12.2 °F 2.9 °F -5.4 °F 45% 30.46 in 10.0 mi ESE 5.8 mph - N/A   Clear
5:55 PM 10.9 °F 1.4 °F -5.8 °F 47% 30.46 in 10.0 mi ESE 5.8 mph - N/A   Clear
6:15 PM 9.1 °F 0.8 °F -6.2 °F 50% 30.46 in 10.0 mi ESE 4.6 mph - N/A   Clear
6:35 PM 7.5 °F -3.9 °F -6.7 °F 52% 30.45 in 10.0 mi ESE 6.9 mph - N/A   Clear
6:55 PM 6.3 °F -4.1 °F -7.1 °F 54% 30.46 in 10.0 mi East 5.8 mph - N/A   Clear
7:15 PM 5.0 °F -5.6 °F -7.8 °F 56% 30.45 in 10.0 mi East 5.8 mph - N/A   Clear
7:35 PM 4.1 °F -6.7 °F -7.8 °F 58% 30.44 in 10.0 mi East 5.8 mph - N/A   Clear
7:55 PM 4.6 °F -6.0 °F -6.9 °F 59% 30.44 in 10.0 mi East 5.8 mph - N/A   Clear
8:15 PM 2.3 °F -7.2 °F -8.3 °F 61% 30.44 in 10.0 mi ESE 4.6 mph - N/A   Clear
8:35 PM 4.5 °F -2.7 °F -7.8 °F 57% 30.45 in 10.0 mi SE 3.5 mph - N/A   Clear
8:55 PM 4.1 °F -5.1 °F -8.0 °F 57% 30.45 in 10.0 mi ESE 4.6 mph - N/A   Clear
9:15 PM 2.5 °F -7.0 °F -8.7 °F 60% 30.45 in 10.0 mi ESE 4.6 mph - N/A   Clear
9:35 PM 1.4 °F -6.2 °F -9.6 °F 60% 30.45 in 10.0 mi East 3.5 mph - N/A   Clear
9:55 PM 0.5 °F -9.3 °F -9.8 °F 62% 30.45 in 10.0 mi East 4.6 mph - N/A   Clear
10:15 PM 0.3 °F -7.5 °F -9.2 °F 64% 30.45 in 10.0 mi ESE 3.5 mph - N/A   Clear
10:35 PM 0.5 °F -9.3 °F -8.1 °F 67% 30.44 in 10.0 mi East 4.6 mph - N/A   Clear
10:55 PM -0.6 °F - -8.7 °F 69% 30.43 in 10.0 mi Calm Calm - N/A   Clear
11:15 PM -1.1 °F - -8.9 °F 70% 30.44 in 10.0 mi Calm Calm - N/A   Clear
11:35 PM -1.3 °F - -8.3 °F 72% 30.43 in 10.0 mi Calm Calm - N/A   Clear
11:55 PM -2.4 °F - -8.5 °F 75% 30.43 in 10.0 mi Calm Calm - N/A   Clear